Погода в Паново

Россия / Омская область     57°47′44″N   70°49′44″E
темп.,
°C
ветер,
м/с
пор.,
м/с
влажн.,
%
обл.,
%
осадки,
мм/ч
давл.,
гПа
погр.,
м
11 апреля, вс
вс1100:000ю379890 0.0 1040174
03:00−1ю289899 0.0 1040181
06:00+1ю3896100 0.0 1040247
09:00+2ю4988100 0.0 1039315
12:00+7ююз596894 0.0 1038537
15:00+9ююз51171100 0.0 1036663
18:00+8ююз51371100 0.0 1035611
21:00+5ююз41479100 0.0 1034464
12 апреля, пн
пн1200:00+4ююз41482100 0.0 1032391
03:00+3юз4128599 0.0 1031329
06:00+3юз31091100 0.0 1031296
09:00+4зюз2898100 1.1 1030253
12:00+6з2798100 1.1 1031400
15:00+11сз5755100 0.0 10311319
18:00+10ссз495886 0.1 10331348
21:00+4ссз22720 0.0 103527
13 апреля, вт
вт1300:00+2сз27800 0.0 1037127
03:00+1зсз23840 0.0 103841
06:000з25840 0.0 103883
09:00+4з4867100 0.0 1038381
12:00+8зсз585059 0.0 1038989
15:00+11з57405 0.0 10371221
18:00+11з484360 0.0 10351028
21:00+6зюз266630 0.0 103488
14 апреля, ср
ср1400:00+4юз31073100 0.0 1034188
03:00+3юз398174 0.0 1032168
06:00+3юз31280100 0.0 1031253
09:00+7юз41375100 0.0 1029446
12:00+13зюз51065100 0.0 1027719
15:00+16зюз695783 0.0 10241170
18:00+16з41061100 0.0 10231211
21:00+11зюз398285 0.0 1022171
15 апреля, чт
чт1500:00+9зюз31089100 0.0 1021201
03:00+8зюз289368 0.0 1020153
06:00+7зюз3109441 0.0 1019197
09:00+11зюз411725 0.0 1018442
12:00+15з594628 0.0 10161385
15:00+17з57398 0.0 10151648
18:00+18з474473 0.0 10151922
21:00+13сз2665100 0.0 1015167